Iridium Next SV172
operational LEOCIRCULARPOLAR
Über Iridium Next SV172
Group: 3 satellites
Beschreibung wird geladen...
Live-Position
3D-Globus wird geladen...
Nächste Überflüge
Höhenverlauf
Altitude vs Time
uPlot chart will show altitude changes over time
Zweizeiliger Elementsatz
1 43927U 19002F 25304.82799693 .00000073 00000-0 19178-4 0 9994
2 43927 86.3930 89.0410 0002320 92.9233 267.2228 14.34218033356230
Epoch: 31. Okt. 2025 •
Age: 15 hours
Aktueller Status
Höhe 780.2 km
Geschwindigkeit 7.46 km/s
Subsatellitenpunkt 3.61°N,
116.36°W
Startdatum 11. Jan. 2019
Alter 6.8 years
Typ communications
Technische Details
Klassifizierung Payload
Masse 860.00 kg
Trockenmasse 700.00 kg
Gesamtmasse 860.00 kg
Länge 3.10 m
Durchmesser 1.50 m
Spannweite 9.40 m
Form Half Hex Prism+2 pan
Hersteller NGISGA
Bus-Typ EliteBus
Phasenstatus In Orbit
Besitzer/Staat IRIDS/US
Große Konstellationen
Loading constellations...